period_start,C,m1,H,J0,J1,J2,J3,J4,J5,JA,JB,JC,JD,JJ,JK,JN,#
2018-01-23 00:04:28,0.09,4.12,0.00,23.51,24.54,27.73,14.27,48.16,1044.94,2034.01,1994.21,2193.09,2437.82,600.27,611.84,54.74,0000 0000 0000 0000 000000
2018-01-23 00:09:29,0.08,4.13,0.00,23.49,24.54,27.76,14.22,48.18,1044.94,2034.03,1993.29,2192.47,2437.01,600.05,611.69,54.80,0000 0000 0000 0000 000000
2018-01-23 00:14:31,0.07,4.13,0.00,23.51,24.52,27.74,14.18,48.24,1044.95,2034.02,1992.24,2191.83,2436.13,599.59,611.24,54.85,0000 0000 0000 0000 000000
2018-01-23 00:19:32,0.09,4.14,0.00,23.49,24.52,27.68,14.30,48.17,1044.96,2034.03,1991.21,2191.06,2435.38,600.46,611.94,54.90,0000 0000 0000 0000 000000
2018-01-23 00:24:33,0.11,4.14,0.00,23.48,24.52,27.72,14.21,48.18,1044.96,2034.05,1990.15,2190.31,2434.59,599.78,611.56,54.95,0000 0000 0000 0000 000000
2018-01-23 00:29:34,0.08,4.14,0.00,23.49,24.52,27.74,14.12,48.14,1044.96,2034.05,1989.02,2189.60,2433.73,600.01,611.81,55.00,0000 0000 0000 0000 000000
2018-01-23 00:34:35,0.09,4.15,0.00,23.47,24.52,27.69,14.15,48.24,1044.95,2034.20,1987.96,2188.85,2432.90,600.15,611.80,55.05,0000 0000 0000 0000 000000
2018-01-23 00:39:37,0.10,4.16,0.00,23.49,24.51,27.71,14.22,48.23,1044.95,2034.27,1986.93,2188.04,2432.04,600.28,611.83,55.10,0000 0000 0000 0000 000000
2018-01-23 00:44:38,0.10,4.16,0.00,23.47,24.51,27.70,14.14,48.20,1044.95,2034.30,1985.95,2187.36,2431.24,599.68,611.30,55.15,0000 0000 0000 0000 000000
2018-01-23 00:49:39,0.07,4.16,0.00,23.49,24.50,27.67,14.19,48.22,1044.95,2034.18,1984.95,2186.71,2430.40,600.05,611.80,55.20,0000 0000 0000 0000 000000
2018-01-23 00:54:41,0.08,4.17,0.00,23.48,24.50,27.70,14.24,48.21,1044.95,2034.23,1984.02,2186.00,2429.67,600.05,611.71,55.25,0000 0000 0000 0000 000000
2018-01-23 00:59:42,0.12,4.18,0.00,23.47,24.50,27.65,14.20,48.21,1044.95,2034.52,1983.09,2185.23,2428.92,600.04,611.71,55.30,0000 0000 0000 0000 000000
2018-01-23 01:04:43,0.11,4.18,0.00,23.47,24.50,27.65,14.17,48.31,1044.96,2034.62,1982.07,2184.55,2428.07,599.93,611.65,55.35,0000 0000 0000 0000 000000
2018-01-23 01:09:44,0.09,4.19,0.00,23.48,24.50,27.69,14.18,48.33,1044.96,2034.89,1981.07,2183.95,2427.31,599.81,611.45,55.40,0000 0000 0000 0000 000000
2018-01-23 01:14:46,0.10,4.19,0.00,23.49,24.50,27.67,14.24,48.32,1044.95,2034.86,1980.02,2183.10,2426.50,599.89,611.53,55.45,0000 0000 0000 0000 000000
2018-01-23 01:19:47,0.10,4.19,0.00,23.47,24.50,27.75,14.17,48.35,1044.95,2034.94,1978.96,2182.44,2425.76,600.01,611.77,55.50,0000 0000 0000 0000 000000
2018-01-23 01:24:48,0.08,4.20,0.00,23.48,24.50,27.69,14.18,48.43,1044.95,2034.95,1977.78,2181.77,2424.96,599.85,611.44,55.55,0000 0000 0000 0000 000000
2018-01-23 01:29:50,0.10,4.20,0.00,23.46,24.50,27.61,14.20,48.44,1044.95,2034.98,1976.69,2180.98,2424.08,599.92,611.68,55.60,0000 0000 0000 0000 000000
2018-01-23 01:34:51,0.10,4.21,0.00,23.48,24.50,27.68,14.22,48.51,1044.94,2034.98,1975.69,2180.12,2423.19,600.13,611.79,55.65,0000 0000 0000 0000 000000
2018-01-23 01:39:53,0.10,4.21,0.00,23.49,24.49,27.70,14.17,48.53,1044.95,2034.98,1974.59,2179.40,2422.31,600.35,611.96,55.70,0000 0000 0000 0000 000000
2018-01-23 01:44:54,0.08,4.22,0.00,23.48,24.49,27.67,14.22,48.45,1044.94,2034.96,1973.70,2178.70,2421.42,600.10,611.66,55.76,0000 0000 0000 0000 000000
2018-01-23 01:49:55,0.08,4.22,0.00,23.49,24.49,27.68,14.24,48.38,1044.94,2034.97,1972.72,2177.98,2420.57,600.01,611.64,55.81,0000 0000 0000 0000 000000
2018-01-23 01:54:57,0.09,4.23,0.00,23.49,24.49,27.69,14.25,48.46,1044.95,2034.97,1971.65,2177.16,2419.74,600.18,611.77,55.86,0000 0000 0000 0000 000000
2018-01-23 01:59:57,0.09,4.23,0.00,23.50,24.49,27.70,14.19,48.31,1044.94,2034.96,1970.64,2176.43,2418.85,600.10,611.84,55.91,0000 0000 0000 0000 000000
2018-01-23 02:04:58,0.06,4.24,0.00,23.50,24.50,27.73,14.10,48.37,1044.94,2034.96,1969.77,2175.82,2418.02,599.79,611.28,55.96,0000 0000 0000 0000 000000
2018-01-23 02:09:59,0.08,4.24,0.00,23.52,24.49,27.71,14.23,48.57,1044.94,2034.97,1968.84,2175.06,2417.14,600.24,611.77,56.01,0000 0000 0000 0000 000000
2018-01-23 02:15:01,0.09,4.25,0.00,23.50,24.49,27.68,14.15,48.53,1044.94,2034.96,1967.85,2174.41,2416.32,599.79,611.36,56.06,0000 0000 0000 0000 000000
2018-01-23 02:20:02,0.09,4.25,0.00,23.51,24.50,27.70,14.28,48.42,1044.94,2034.98,1966.78,2173.77,2415.61,600.25,611.85,56.11,0000 0000 0000 0000 000000
2018-01-23 02:25:03,0.08,4.26,0.00,23.51,24.49,27.69,14.11,48.39,1044.94,2034.96,1965.69,2172.99,2414.71,599.63,611.25,56.16,0000 0000 0000 0000 000000
2018-01-23 02:30:04,0.10,4.26,0.00,23.51,24.50,27.71,14.19,48.39,1044.94,2034.93,1964.56,2172.12,2413.89,599.93,611.50,56.21,0000 0000 0000 0000 000000
2018-01-23 02:35:05,0.10,4.26,0.00,23.51,24.49,27.67,14.17,48.33,1044.90,2034.95,1963.50,2171.40,2412.96,599.84,611.36,56.26,0000 0000 0000 0000 000000
2018-01-23 02:40:07,0.08,4.27,0.00,23.49,24.49,27.71,14.17,48.33,1044.89,2034.92,1962.56,2170.63,2412.01,599.95,611.55,56.31,0000 0000 0000 0000 000000
2018-01-23 02:45:08,0.08,4.27,0.00,23.52,24.49,27.74,14.13,48.35,1044.88,2034.94,1961.51,2169.96,2411.15,599.94,611.48,56.36,0000 0000 0000 0000 000000
2018-01-23 02:50:09,0.11,4.28,0.00,23.49,24.49,27.72,14.19,48.32,1044.79,2034.96,1960.43,2169.10,2410.37,599.83,611.31,56.41,0000 0000 0000 0000 000000
2018-01-23 02:55:11,0.10,4.28,0.00,23.49,24.49,27.71,14.34,48.38,1044.80,2034.97,1959.46,2168.40,2409.55,600.35,611.90,56.46,0000 0000 0000 0000 000000
2018-01-23 03:00:12,0.08,4.29,0.00,23.50,24.50,27.67,14.21,48.38,1044.88,2034.97,1958.24,2167.72,2408.82,599.96,611.58,56.51,0000 0000 0000 0000 000000
2018-01-23 03:05:14,0.08,4.29,0.00,23.50,24.50,27.68,14.24,48.35,1044.88,2034.97,1957.06,2166.92,2407.96,600.30,611.90,56.56,0000 0000 0000 0000 000000
2018-01-23 03:10:15,0.10,4.30,0.00,23.52,24.50,27.67,14.18,48.48,1044.74,2034.99,1955.89,2166.07,2407.08,599.94,611.37,56.62,0000 0000 0000 0000 000000
2018-01-23 03:15:16,0.10,4.30,0.00,23.50,24.50,27.72,14.14,48.46,1044.73,2034.99,1954.82,2165.26,2406.16,600.03,611.47,56.67,0000 0000 0000 0000 000000
2018-01-23 03:20:18,0.11,4.31,0.00,23.50,24.50,27.69,14.24,48.56,1044.71,2034.98,1953.71,2164.49,2405.24,599.98,611.52,56.72,0000 0000 0000 0000 000000
2018-01-23 03:25:19,0.07,4.31,0.00,23.51,24.50,27.72,14.29,48.65,1044.78,2034.98,1952.75,2163.84,2404.43,599.87,611.48,56.77,0000 0000 0000 0000 000000
2018-01-23 03:30:20,0.08,4.32,0.00,23.54,24.50,27.70,14.16,48.57,1044.72,2034.98,1951.96,2163.04,2403.56,599.69,611.08,56.82,0000 0000 0000 0000 000000
2018-01-23 03:35:21,0.10,4.32,0.00,23.51,24.50,27.71,14.20,48.48,1044.70,2034.98,1950.94,2162.26,2402.62,600.12,611.55,56.87,0000 0000 0000 0000 000000
2018-01-23 03:40:23,0.10,4.33,0.00,23.49,24.50,27.67,14.16,48.46,1044.86,2034.98,1949.84,2161.53,2401.80,600.02,611.75,56.92,0000 0000 0000 0000 000000
2018-01-23 03:45:24,0.09,4.33,0.00,23.51,24.50,27.73,14.24,48.45,1044.80,2034.99,1948.63,2160.79,2400.94,599.97,611.53,56.97,0000 0000 0000 0000 000000
2018-01-23 03:50:26,0.09,4.34,0.00,23.52,24.50,27.69,14.14,48.47,1044.82,2034.99,1947.40,2160.01,2400.07,599.84,611.35,57.02,0000 0000 0000 0000 000000
2018-01-23 03:55:27,0.10,4.34,0.00,23.54,24.50,27.72,14.21,48.37,1044.88,2034.99,1946.24,2159.17,2399.30,600.12,611.63,57.07,0000 0000 0000 0000 000000
2018-01-23 04:00:28,0.10,4.35,0.00,23.52,24.51,27.69,14.14,48.48,1044.80,2034.99,1945.12,2158.41,2398.38,599.89,611.38,57.12,0000 0000 0000 0000 000000
2018-01-23 04:05:30,0.09,4.35,0.00,23.54,24.51,27.78,14.24,48.65,1044.83,2034.99,1944.09,2157.66,2397.46,600.05,611.62,57.17,0000 0000 0000 0000 000000
2018-01-23 04:10:31,0.07,4.36,0.00,23.52,24.52,27.67,14.24,48.52,1044.90,2034.99,1943.06,2156.95,2396.65,600.24,611.74,57.22,0000 0000 0000 0000 000000
2018-01-23 04:15:32,0.11,4.36,0.00,23.54,24.52,27.70,14.19,48.53,1044.82,2034.99,1941.83,2156.08,2395.79,600.11,611.51,57.27,0000 0000 0000 0000 000000
2018-01-23 04:20:33,0.10,4.37,0.00,23.52,24.52,27.68,14.21,48.67,1044.92,2034.99,1940.64,2155.26,2394.93,600.00,611.74,57.32,0000 0000 0000 0000 000000
2018-01-23 04:25:34,0.10,4.37,0.00,23.52,24.52,27.70,14.23,48.72,1044.93,2034.99,1939.45,2154.53,2394.04,600.51,611.95,57.37,0000 0000 0000 0000 000000
2018-01-23 04:30:36,0.08,4.38,0.00,23.52,24.52,27.70,14.23,48.75,1044.88,2034.99,1938.41,2153.81,2393.12,600.29,611.76,57.42,0000 0000 0000 0000 000000
2018-01-23 04:35:37,0.09,4.38,0.00,23.51,24.52,27.69,14.20,48.74,1044.86,2034.99,1937.50,2152.97,2392.15,600.21,611.76,57.47,0000 0000 0000 0000 000000
2018-01-23 04:40:38,0.11,4.39,0.00,23.55,24.53,27.73,14.15,48.69,1044.85,2034.99,1936.27,2152.09,2391.23,600.14,611.47,57.53,0000 0000 0000 0000 000000
2018-01-23 04:45:40,0.11,4.39,0.00,23.53,24.54,27.71,14.16,48.77,1044.75,2034.99,1934.95,2151.26,2390.39,599.67,611.05,57.58,0000 0000 0000 0000 000000
2018-01-23 04:50:41,0.09,4.40,0.00,23.55,24.55,27.67,14.22,48.71,1044.82,2034.99,1933.90,2150.39,2389.40,600.48,611.85,57.63,0000 0000 0000 0000 000000
2018-01-23 04:55:43,0.10,4.40,0.00,23.53,24.55,27.71,14.19,48.74,1044.64,2034.99,1932.87,2149.61,2388.32,600.09,611.56,57.68,0000 0000 0000 0000 000000
2018-01-23 05:00:44,0.12,4.41,0.00,23.57,24.55,27.68,14.17,48.76,1044.60,2034.99,1931.59,2148.65,2387.28,600.22,611.39,57.73,0000 0000 0000 0000 000000
2018-01-23 05:05:45,0.10,4.42,0.00,23.57,24.55,27.69,14.18,48.73,1044.56,2034.99,1930.38,2147.79,2386.16,600.05,611.29,57.78,0000 0000 0000 0000 000000
2018-01-23 05:10:47,0.09,4.42,0.00,23.54,24.55,27.72,14.17,48.66,1044.71,2034.98,1929.52,2146.94,2385.08,599.92,611.35,57.83,0000 0000 0000 0000 000000
2018-01-23 05:15:48,0.11,4.43,0.00,23.39,24.55,27.60,14.24,48.71,1044.62,2034.95,1928.29,2146.01,2383.94,600.27,611.90,57.88,0000 0000 0000 0000 000000
2018-01-23 05:20:49,0.12,4.43,0.00,23.30,24.55,27.55,14.21,48.73,1044.53,2034.95,1926.92,2145.07,2382.78,599.74,611.62,57.93,0000 0000 0000 0000 000000
2018-01-23 05:25:51,0.11,4.44,0.00,23.18,24.54,27.52,14.19,48.50,1044.50,2034.90,1925.67,2144.14,2381.66,600.11,612.13,57.98,0000 0000 0000 0000 000000
2018-01-23 05:30:52,0.13,4.45,0.00,23.07,24.52,27.44,14.17,48.65,1044.52,2034.94,1924.18,2143.18,2380.58,599.45,611.58,58.03,0000 0000 0000 0000 000000
2018-01-23 05:35:53,0.14,4.45,0.00,22.98,24.50,27.34,14.23,48.71,1044.64,2034.98,1922.57,2142.17,2379.47,600.17,612.52,58.08,0000 0000 0000 0000 000000
2018-01-23 05:40:55,0.13,4.46,0.00,22.91,24.47,27.27,14.25,48.70,1044.87,2034.98,1920.85,2141.09,2378.38,600.01,612.78,58.13,0000 0000 0000 0000 000000
2018-01-23 05:45:56,0.13,4.47,0.00,22.87,24.45,27.16,14.17,48.76,1044.86,2034.99,1919.29,2140.09,2377.28,599.87,612.72,58.18,0000 0000 0000 0000 000000
2018-01-23 05:50:57,0.12,4.47,0.00,22.83,24.41,27.08,14.26,48.81,1044.88,2034.99,1917.82,2139.11,2376.27,600.25,613.24,58.23,0000 0000 0000 0000 000000
2018-01-23 05:55:59,0.12,4.48,0.00,22.81,24.38,27.03,14.24,48.85,1044.89,2035.00,1916.56,2138.30,2375.33,599.67,612.63,58.28,0000 0000 0000 0000 000000
2018-01-23 06:01:00,0.13,4.49,0.00,22.79,24.36,26.95,14.25,48.86,1044.88,2035.11,1915.18,2137.47,2374.37,600.40,613.36,58.33,0000 0000 0000 0000 000000
2018-01-23 06:06:01,0.20,4.50,0.00,22.78,24.32,26.97,14.23,48.97,1044.89,2035.73,1913.75,2136.63,2373.57,599.81,612.87,58.38,0000 0000 0000 0000 000000
2018-01-23 06:11:02,0.13,4.50,0.00,22.80,24.29,26.99,14.24,49.13,1044.93,2035.96,1912.28,2135.66,2372.54,600.06,613.05,58.43,0000 0000 0000 0000 000000
2018-01-23 06:16:04,0.11,4.51,0.00,22.80,24.26,26.96,14.27,49.28,1044.94,2035.99,1910.80,2134.80,2371.56,599.74,612.90,58.49,0000 0000 0000 0000 000000
2018-01-23 06:21:05,0.16,4.52,0.00,22.79,24.23,26.91,14.36,49.26,1044.93,2035.99,1909.20,2133.60,2370.18,600.13,613.28,58.54,0000 0000 0000 0000 000000
2018-01-23 06:26:06,0.15,4.53,0.00,22.78,24.21,26.92,14.20,49.18,1044.94,2035.99,1907.42,2132.31,2368.80,599.79,612.85,58.59,0000 0000 0000 0000 000000
2018-01-23 06:31:08,0.12,4.53,0.00,22.79,24.18,26.90,14.22,49.18,1044.94,2036.00,1906.02,2131.48,2367.72,600.11,613.19,58.64,0000 0000 0000 0000 000000
2018-01-23 06:36:09,0.14,4.54,0.00,22.79,24.16,26.98,14.23,49.06,1044.94,2036.03,1904.63,2130.34,2366.54,600.36,613.49,58.69,0000 0000 0000 0000 000000
2018-01-23 06:41:10,0.14,4.55,0.00,22.83,24.14,26.94,14.18,49.07,1044.94,2036.03,1902.99,2129.21,2365.32,599.71,612.71,58.74,0000 0000 0000 0000 000000
2018-01-23 06:46:11,0.14,4.55,0.00,22.77,24.12,26.93,14.22,49.01,1044.94,2036.06,1901.63,2128.15,2363.99,599.77,612.88,58.79,0000 0000 0000 0000 000000
2018-01-23 06:51:13,0.11,4.56,0.00,22.18,24.09,26.96,14.29,48.99,1044.94,2036.04,1900.37,2127.24,2362.89,599.85,614.19,58.84,0000 0000 0000 0000 000000
2018-01-23 06:56:14,0.13,4.57,0.00,21.59,24.03,27.00,14.31,49.14,1044.94,2036.29,1899.17,2126.67,2362.05,599.96,615.52,58.89,0000 0000 0000 0000 000000
2018-01-23 07:01:15,0.16,4.58,0.00,21.14,23.97,27.02,14.41,48.98,1044.94,2036.83,1897.80,2125.99,2361.24,600.10,616.59,58.94,0000 0000 0000 0000 000000
2018-01-23 07:06:17,0.11,4.58,0.00,20.74,23.88,26.99,14.46,49.15,1044.94,2036.99,1896.55,2125.28,2360.66,600.12,617.52,58.99,0000 0000 0000 0000 000000
2018-01-23 07:11:18,0.08,4.59,0.00,20.34,23.79,26.96,14.43,49.20,1044.95,2037.16,1895.49,2124.96,2360.02,600.09,618.20,59.04,0000 0000 0000 0000 000000
2018-01-23 07:16:19,0.17,4.59,0.00,19.97,23.68,26.84,14.49,49.18,1044.96,2037.88,1894.57,2124.22,2359.49,599.98,619.09,59.09,0000 0000 0000 0000 000000
2018-01-23 07:21:20,0.05,4.60,0.00,19.62,23.57,26.70,14.47,49.24,1044.94,2038.00,1893.56,2123.99,2358.97,600.06,619.74,59.14,0000 0000 0000 0000 000000
2018-01-23 07:26:21,0.20,4.61,0.00,19.28,23.44,26.57,14.59,49.28,1044.94,2038.53,1892.29,2123.49,2358.38,600.40,620.84,59.19,0000 0000 0000 0000 000000
2018-01-23 07:31:23,0.07,4.61,0.00,18.97,23.31,26.37,14.55,49.34,1044.94,2039.04,1891.06,2123.01,2358.00,600.33,621.35,59.24,0000 0000 0000 0000 000000
2018-01-23 07:36:24,0.20,4.62,0.00,18.67,23.17,26.21,14.58,49.46,1044.94,2039.86,1889.96,2122.57,2357.55,600.01,621.72,59.29,0000 0000 0000 0000 000000
2018-01-23 07:41:25,0.08,4.63,0.00,18.39,23.02,26.06,14.61,49.49,1044.94,2040.12,1888.99,2122.02,2357.00,600.38,622.80,59.35,0000 0000 0000 0000 000000
2018-01-23 07:46:26,0.16,4.64,0.00,18.12,22.87,25.90,14.61,49.51,1044.93,2040.90,1888.02,2121.85,2356.27,599.79,622.60,59.40,0000 0000 0000 0000 000000
2018-01-23 07:51:27,0.18,4.64,0.00,17.87,22.71,25.70,14.67,49.46,1044.89,2041.28,1886.65,2121.06,2355.71,599.93,623.29,59.45,0000 0000 0000 0000 000000
2018-01-23 07:56:29,0.21,4.65,0.00,17.63,22.55,25.54,14.61,49.55,1044.71,2041.97,1884.75,2120.15,2354.57,599.56,623.41,59.50,0000 0000 0000 0000 000000
2018-01-23 08:01:30,0.37,4.67,0.00,17.39,22.38,25.37,14.69,49.58,1044.53,2042.54,1881.67,2118.47,2352.65,599.88,623.99,59.55,0000 0000 0000 0000 000000
2018-01-23 08:06:31,0.17,4.68,0.00,17.15,22.22,25.22,14.67,49.59,1044.47,2043.04,1879.52,2117.34,2351.46,599.59,624.33,59.60,0000 0000 0000 0000 000000
2018-01-23 08:11:32,0.25,4.69,0.00,16.93,22.04,24.99,14.71,49.61,1044.46,2043.83,1877.49,2116.46,2350.42,599.94,625.15,59.65,0000 0000 0000 0000 000000
2018-01-23 08:16:34,0.25,4.70,0.00,16.72,21.87,24.82,14.77,49.72,1044.45,2044.36,1875.30,2115.44,2349.30,600.13,625.86,59.70,0000 0000 0000 0000 000000
2018-01-23 08:21:35,0.22,4.72,0.00,16.50,21.70,24.60,14.73,49.83,1044.45,2045.09,1873.02,2114.36,2348.15,599.95,626.04,59.75,0000 0000 0000 0000 000000
2018-01-23 08:26:37,0.25,4.73,0.00,16.29,21.53,24.47,14.83,50.11,1044.45,2045.92,1870.90,2113.40,2347.26,600.60,627.12,59.80,0000 0000 0000 0000 000000
2018-01-23 08:31:38,0.23,4.74,0.00,16.09,21.35,24.26,14.80,50.23,1044.41,2046.64,1869.17,2112.47,2346.16,600.39,627.37,59.85,0000 0000 0000 0000 000000
2018-01-23 08:36:39,0.08,4.75,0.00,15.90,21.17,24.09,14.86,50.07,1044.35,2046.99,1868.08,2112.01,2345.27,600.01,627.34,59.90,0000 0000 0000 0000 000000
2018-01-23 08:41:40,0.12,4.75,0.00,15.72,21.00,23.91,14.78,50.11,1044.42,2047.47,1867.25,2111.93,2344.99,600.02,627.79,59.95,0000 0000 0000 0000 000000
2018-01-23 08:46:42,0.16,4.76,0.00,15.52,20.82,23.70,14.75,50.05,1044.26,2048.10,1865.92,2111.17,2344.48,599.62,627.75,60.00,0000 0000 0000 0000 000000
2018-01-23 08:51:43,0.15,4.77,0.00,15.33,20.64,23.59,14.82,49.98,1044.21,2048.94,1864.70,2111.00,2344.00,599.97,628.54,60.05,0000 0000 0000 0000 000000
2018-01-23 08:56:45,0.19,4.78,0.00,15.15,20.47,23.43,14.84,49.95,1044.21,2049.59,1863.60,2110.72,2343.47,599.82,628.81,60.10,0000 0000 0000 0000 000000
2018-01-23 09:01:46,0.17,1.91,0.00,14.98,20.32,23.19,13.31,43.79,1044.02,2052.40,2847.67,2724.77,3098.03,537.87,563.97,0.02,0000 0000 0000 0000 000002
2018-01-23 09:06:48,0.17,0.00,0.00,14.80,20.13,23.02,14.85,47.97,1043.97,2054.31,3497.95,3131.39,3597.88,599.83,629.46,0.04,0000 0000 0000 0000 000000
2018-01-23 09:11:49,0.19,0.01,0.00,14.63,19.95,22.83,14.92,47.87,1043.97,2055.00,3491.52,3128.06,3593.93,600.33,630.23,0.09,0000 0000 0000 0000 000000
2018-01-23 09:16:50,0.22,0.03,0.00,14.45,19.77,22.65,14.78,47.55,1043.96,2055.76,3485.60,3125.17,3590.52,599.54,629.87,0.14,0000 0000 0000 0000 000000
2018-01-23 09:21:51,0.22,0.04,0.00,14.27,19.59,22.50,14.80,47.67,1043.96,2056.39,3481.37,3123.29,3588.00,599.68,630.34,0.19,0000 0000 0000 0000 000000
2018-01-23 09:26:52,0.17,0.05,0.00,14.10,19.41,22.33,14.87,47.55,1043.96,2057.01,3479.33,3122.27,3586.92,600.24,631.37,0.24,0000 0000 0000 0000 000000
2018-01-23 09:31:53,0.12,0.05,0.00,13.93,19.24,22.16,14.88,47.40,1043.91,2057.80,3477.79,3121.97,3586.07,600.20,631.61,0.29,0000 0000 0000 0000 000000
2018-01-23 09:36:55,0.12,0.06,0.00,13.77,19.07,21.95,14.83,47.46,1043.86,2058.34,3476.18,3121.17,3585.31,599.90,631.59,0.34,0000 0000 0000 0000 000000
2018-01-23 09:41:56,0.08,0.06,0.00,13.61,18.90,21.77,14.87,47.49,1043.86,2059.00,3474.65,3120.75,3584.36,600.08,632.09,0.39,0000 0000 0000 0000 000000
2018-01-23 09:46:57,0.12,0.07,0.00,13.45,18.74,21.60,14.83,47.54,1043.66,2059.72,3473.12,3120.03,3583.77,599.62,631.86,0.44,0000 0000 0000 0000 000000
2018-01-23 09:51:59,0.09,0.07,0.00,13.29,18.58,21.46,14.95,47.59,1043.51,2060.20,3471.59,3119.54,3583.03,600.25,632.76,0.49,0000 0000 0000 0000 000000
2018-01-23 09:57:00,0.10,0.08,0.00,13.14,18.41,21.34,14.95,47.58,1043.48,2060.97,3470.08,3118.99,3582.40,600.46,633.33,0.54,0000 0000 0000 0000 000000
2018-01-23 10:02:01,0.14,0.09,0.00,12.98,18.25,21.17,14.92,47.63,1043.48,2061.72,3468.37,3118.20,3581.33,600.15,633.25,0.59,0000 0000 0000 0000 000000
2018-01-23 10:07:02,0.08,0.09,0.00,12.84,18.09,21.01,14.84,47.52,1043.48,2062.06,3466.55,3117.42,3580.10,599.69,633.13,0.64,0000 0000 0000 0000 000000
2018-01-23 10:12:04,0.17,0.10,0.00,12.69,17.93,20.87,14.89,47.64,1043.48,2062.87,3464.30,3116.20,3578.37,599.86,633.69,0.69,0000 0000 0000 0000 000000
2018-01-23 10:17:05,0.12,0.10,0.00,12.55,17.77,20.75,14.93,47.58,1043.47,2063.28,3462.09,3115.01,3576.80,599.92,634.08,0.74,0000 0000 0000 0000 000000
2018-01-23 10:22:06,0.13,0.11,0.00,12.40,17.61,20.56,14.96,47.46,1043.47,2063.96,3459.93,3113.86,3575.49,599.95,634.41,0.79,0000 0000 0000 0000 000000
2018-01-23 10:27:07,0.18,0.12,0.00,12.26,17.45,20.45,14.93,47.63,1043.47,2064.67,3457.26,3112.52,3573.81,599.97,634.88,0.84,0000 0000 0000 0000 000000
2018-01-23 10:32:09,0.14,0.13,0.00,12.12,17.29,20.27,14.99,47.71,1043.47,2065.14,3454.31,3110.81,3571.90,600.22,635.33,0.89,0000 0000 0000 0000 000000
2018-01-23 10:37:10,0.23,0.14,0.00,11.98,17.14,20.13,14.97,47.71,1043.47,2065.92,3450.67,3108.52,3569.24,600.15,635.59,0.94,0000 0000 0000 0000 000000
2018-01-23 10:42:12,0.19,0.15,0.00,11.85,16.98,19.95,14.95,47.80,1043.47,2066.35,3447.09,3106.37,3566.60,599.95,635.64,0.99,0000 0000 0000 0000 000000
2018-01-23 10:47:13,0.17,0.16,0.00,11.72,16.84,19.81,14.97,47.73,1043.47,2066.99,3443.86,3104.47,3564.27,599.90,636.02,1.04,0000 0000 0000 0000 000000
2018-01-23 10:52:14,0.22,0.17,0.00,11.57,16.68,19.67,14.99,47.76,1043.47,2067.63,3440.58,3102.42,3561.79,600.08,636.44,1.09,0000 0000 0000 0000 000000
2018-01-23 10:57:16,0.14,0.18,0.00,11.43,16.53,19.55,15.01,47.83,1043.47,2068.07,3437.47,3100.51,3559.43,600.01,636.65,1.15,0000 0000 0000 0000 000000
2018-01-23 11:02:17,0.21,0.19,0.00,11.30,16.38,19.41,14.97,47.86,1043.45,2068.89,3434.39,3098.72,3557.24,599.98,636.87,1.20,0000 0000 0000 0000 000000
2018-01-23 11:07:18,0.15,0.20,0.00,11.16,16.23,19.28,15.02,47.88,1043.39,2069.19,3431.32,3096.80,3554.93,600.00,637.25,1.25,0000 0000 0000 0000 000000
2018-01-23 11:12:20,0.18,0.21,0.00,11.04,16.08,19.12,14.87,47.80,1043.36,2069.94,3428.25,3095.08,3552.72,600.07,637.54,1.30,0000 0000 0000 0000 000000
2018-01-23 11:17:21,0.24,0.21,0.00,10.89,15.93,18.99,15.05,47.85,1043.31,2070.37,3424.21,3092.75,3549.87,600.15,637.92,1.35,0000 0000 0000 0000 000000
2018-01-23 11:22:22,0.24,0.23,0.00,10.76,15.79,18.87,14.97,47.87,1043.29,2071.00,3419.35,3089.76,3546.38,599.84,637.93,1.40,0000 0000 0000 0000 000000
2018-01-23 11:27:24,0.30,0.24,0.00,10.63,15.65,18.70,15.03,47.83,1043.14,2071.76,3414.25,3086.59,3542.65,600.27,638.57,1.45,0000 0000 0000 0000 000000
2018-01-23 11:32:25,0.34,0.26,0.00,10.51,15.50,18.59,15.04,48.08,1043.09,2072.11,3408.07,3082.08,3537.44,599.90,638.38,1.50,0000 0000 0000 0000 000000
2018-01-23 11:37:27,0.30,0.28,0.00,10.37,15.36,18.44,15.01,48.00,1043.05,2072.91,3402.50,3078.00,3532.71,599.86,638.62,1.55,0000 0000 0000 0000 000000
2018-01-23 11:42:28,0.19,0.29,0.00,10.25,15.23,18.33,15.01,47.93,1043.03,2073.12,3398.27,3075.26,3529.41,599.96,639.02,1.60,0000 0000 0000 0000 000000
2018-01-23 11:47:29,0.23,0.30,0.00,10.13,15.09,18.18,15.09,48.10,1043.01,2073.87,3394.24,3072.79,3526.45,599.97,639.26,1.65,0000 0000 0000 0000 000000
2018-01-23 11:52:31,0.18,0.31,0.00,10.01,14.95,18.03,15.01,48.06,1043.00,2074.20,3390.57,3070.54,3523.62,600.03,639.67,1.70,0000 0000 0000 0000 000000
2018-01-23 11:57:32,0.23,0.32,0.00,9.88,14.81,17.97,15.10,47.93,1042.99,2074.94,3386.75,3068.07,3520.49,600.05,639.81,1.75,0000 0000 0000 0000 000000
2018-01-23 12:02:33,0.22,0.33,0.00,9.75,14.67,17.81,15.07,48.03,1042.99,2075.17,3382.34,3065.26,3517.21,599.78,639.90,1.80,0000 0000 0000 0000 000000
2018-01-23 12:07:35,0.29,0.35,0.00,9.63,14.53,17.64,15.16,48.15,1042.99,2075.90,3377.20,3061.96,3513.26,600.53,640.96,1.85,0000 0000 0000 0000 000000
2018-01-23 12:12:36,0.24,0.36,0.00,9.51,14.39,17.52,15.01,48.10,1042.99,2076.10,3371.99,3058.54,3509.20,599.92,640.56,1.90,0000 0000 0000 0000 000000
2018-01-23 12:17:38,0.27,0.37,0.00,9.39,14.25,17.39,15.18,48.05,1042.98,2076.85,3367.23,3055.58,3505.68,600.24,641.23,1.95,0000 0000 0000 0000 000000
2018-01-23 12:22:39,0.20,0.38,0.00,9.26,14.11,17.27,15.13,48.08,1042.95,2077.12,3362.76,3052.97,3502.64,600.25,641.52,2.00,0000 0000 0000 0000 000000
2018-01-23 12:27:40,0.26,0.40,0.00,9.14,13.98,17.16,15.14,48.17,1042.90,2077.88,3358.29,3050.32,3499.55,599.98,641.44,2.05,0000 0000 0000 0000 000000
2018-01-23 12:32:42,0.25,0.41,0.00,9.03,13.84,17.01,15.12,48.23,1042.64,2078.32,3353.75,3047.60,3496.49,599.58,641.12,2.10,0000 0000 0000 0000 000000
2018-01-23 12:37:43,0.23,0.42,0.00,8.92,13.72,16.88,15.11,48.32,1042.58,2078.97,3349.03,3044.68,3493.06,599.86,641.67,2.15,0000 0000 0000 0000 000000
2018-01-23 12:42:44,0.24,0.43,0.00,8.82,13.59,16.74,15.12,48.29,1042.55,2079.40,3344.63,3042.05,3489.82,600.04,641.87,2.20,0000 0000 0000 0000 000000
2018-01-23 12:47:46,0.22,0.44,0.00,8.70,13.46,16.65,15.15,48.45,1042.52,2079.98,3340.22,3039.48,3486.46,599.95,642.18,2.25,0000 0000 0000 0000 000000
2018-01-23 12:52:47,0.26,0.45,0.00,8.58,13.34,16.54,15.15,48.38,1042.52,2080.47,3335.76,3036.88,3483.28,600.32,642.88,2.30,0000 0000 0000 0000 000000
2018-01-23 12:57:49,0.20,0.47,0.00,8.46,13.21,16.41,15.10,48.39,1042.50,2080.98,3331.27,3034.32,3480.17,599.75,642.49,2.35,0000 0000 0000 0000 000000